Content
SEND FEEDBACK

Daily
Averages
Monthly
Summary
Italy

PARMA, ITALY


Home > Europe > Italy
Elevation: 187 feet     Latitude: 44 48N     Longitude: 010 18E

WEATHER
 
SELECT A DAY
Number of Records: 73,485;   Date Range: 9/14/00 - 8/31/14
 
SHARE

PRINT THIS DATA

[ ← Previous Day ]
WEATHER ALMANAC - JANUARY 19, 2013
[ Next Day → ]
[ °C ]   °F
Weather ElementAverageHighLow
Temperature32.1 °F33.8 °F (10:50 am)30.2 °F (7:50 am)
Dewpoint30.5 °F32 °F (5:50 pm)28.4 °F (6:50 am)
Humidity94 %100 % (5:50 pm)81 % (10:50 am)
Barometer29.57 in29.59 in (5:50 pm)29.53 in (6:50 am)
Wind Speed2.8 mph5.8 mph (2:50 pm)
Weather ElementAverage
Visibility2.7 mi
Wind DirectionNNE (34.2 °)

Weather ElementTotal
Precipitation---
Heating Degree Days33 (Base 65)
Averaged from 19 records on January 19, 2013
WEATHER CONDITIONS BREAKOUT
WIND DIRECTION BREAKOUT
WEATHER BY HOUR - JANUARY 19, 2013
[ °C ]   °F
Local TimeTemperatureDewpointHumidityBarometerVisibilityWind DirectionWind SpeedGust SpeedPrecipitationEventsConditions
6:50 AM32.0 °F28.4 °F87 %29.53 in6.2 miVariable3.5 mphScattered Clouds
7:50 AM30.2 °F28.4 °F93 %29.53 in6.2 miVariable2.3 mphScattered Clouds
8:50 AM30.2 °F28.4 °F93 %29.56 in6.2 miNorth (360°)4.6 mphMostly Cloudy
10:50 AM33.8 °F28.4 °F81 %29.56 in6.2 miVariable1.2 mphMostly Cloudy
11:50 AM32.0 °F30.2 °F93 %29.56 in6.2 miVariable3.5 mphMostly Cloudy
12:50 PM33.8 °F30.2 °F87 %29.56 in6.2 miVariable3.5 mphMostly Cloudy
1:50 PM33.8 °F30.2 °F87 %29.56 in3.7 miVariable3.5 mphSnowLight Snow
2:50 PM32.0 °F30.2 °F93 %29.56 in1.9 miWNW (290°)5.8 mphSnowSnow
3:20 PM32.0 °F30.2 °F93 %29.56 in0.9 miVariable1.2 mphSnowSnow
3:50 PM32.0 °F30.2 °F93 %29.56 in0.9 miVariable3.5 mphSnowSnow
4:05 PM32.0 °F30.2 °F93 %29.56 in1.2 miVariable3.5 mphSnowLight Snow
4:50 PM32.0 °F30.2 °F93 %29.56 in1.2 miVariable1.2 mphSnowLight Snow
5:50 PM32.0 °F32.0 °F100 %29.59 in1.6 miVariable2.3 mphSnowLight Snow
6:50 PM32.0 °F32.0 °F100 %29.59 in0.8 miVariable1.2 mphSnowSnow Grains
7:50 PM32.0 °F32.0 °F100 %29.59 in0.5 miVariable1.2 mphFog-SnowSnow Grains
8:50 PM32.0 °F32.0 °F100 %29.59 in0.3 miVariable2.3 mphFog-SnowSnow
9:50 PM32.0 °F32.0 °F100 %29.59 in0.3 miVariable3.5 mphFog-SnowSnow
10:50 PM32.0 °F32.0 °F100 %29.59 in0.3 miVariable2.3 mphFog-SnowSnow
11:50 PM32.0 °F32.0 °F100 %29.59 in0.3 miVariable3.5 mphFog-SnowLight Snow
Hourly data recorded from LIMP, located miles away from Parma, Italy







STORIES FROM OUR PARTNERS